Погода в Павловской

Россия / Краснодарский край     46°07′49″N   39°47′27″E
темп.,
°C
ветер,
м/с
пор.,
м/с
влажн.,
%
обл.,
%
осадки,
мм/ч
давл.,
гПа
погр.,
м
24 мая, вт
вт2400:00+10в2278100 0.0 100810
03:00+11св1172100 0.0 100914
06:00+11св227890 0.0 101073
09:00+15юв216497 0.1 1010470
12:00+18сз125089 0.2 10111863
15:00+16ю116281 0.4 1012497
18:00+13зюз3479100 1.1 101359
21:00+11ююз338554 1.4 101448
25 мая, ср
ср2500:00+9юз34905 0.0 101553
03:00+8юз34915 0.0 101656
06:00+10з24855 0.0 101789
09:00+16зюз346319 0.0 1018530
12:00+18з564828 0.0 10192130
15:00+16з3865100 0.0 1019281
18:00+17з476286 0.0 1019316
21:00+13з366920 0.0 102095
26 мая, чт
чт2600:00+12зюз3663100 0.0 1020143
03:00+12юз376498 0.0 1021140
06:00+11юз368558 0.0 1021137
09:00+16юз446774 0.0 1021507
12:00+20юз55516 0.0 10201676
15:00+21зюз454698 0.0 10192263
18:00+18зсз4770100 0.1 1019400
21:00+15з257297 0.1 1019140
27 мая, пт
пт2700:00+14юз3769100 0.0 1019243
03:00+13юз487270 0.0 1018229
06:00+13юз497877 0.0 1018287
09:00+17зюз587095 0.0 1018627
12:00+21зюз686144 0.2 10181512
15:00+22з78555 0.8 10171837
18:00+20з58695 0.0 1017808
21:00+15з36870 0.0 101889
28 мая, сб
сб2800:00+13юз348516 0.0 101751
03:00+13юз347847 0.0 101783
06:00+13ююз36825 0.0 1016135
09:00+20ююз45615 0.0 1015485
12:00+23ююз33525 0.0 10151426
15:00+25ююз334848 0.0 10132013
18:00+24юз23595 0.0 1013616
21:00+18сз11689 0.0 101411